| time (UTC) | temp F | wind direction | speed MPH | gust MPH | rain 1hr in | rain 24hr in | rain mn in | humidity % | barometer mb |
| 20260507103059 | 59 | 337 | 8.0 | 20.0 | 0.00 | 0.00 | 0.00 | 89 | 1023.0 |
| 20260507101634 | 59 | 304 | 9.0 | 18.0 | 0.00 | 0.00 | 0.00 | 89 | 1023.0 |
| 20260507100100 | 59 | 316 | 8.0 | 19.0 | 0.00 | 0.00 | 0.00 | 89 | 1023.2 |
| 20260507094559 | 59 | 323 | 7.0 | 18.0 | 0.00 | 0.00 | 0.00 | 89 | 1023.1 |
| 20260507093100 | 59 | 316 | 6.0 | 15.0 | 0.00 | 0.00 | 0.00 | 89 | 1023.3 |
| 20260507091600 | 58 | 8 | 7.0 | 16.0 | 0.00 | 0.00 | 0.00 | 89 | 1023.4 |
| 20260507090113 | 58 | 325 | 6.0 | 13.0 | 0.00 | 0.00 | 0.00 | 89 | 1023.6 |
| 20260507084601 | 58 | 311 | 6.0 | 13.0 | 0.00 | 0.00 | 0.00 | 89 | 1023.7 |
| 20260507083101 | 58 | 314 | 5.0 | 18.0 | 0.00 | 0.00 | 0.00 | 89 | 1023.7 |
| 20260507081559 | 59 | 327 | 7.0 | 13.0 | 0.00 | 0.00 | 0.00 | 89 | 1023.6 |
| 20260507074601 | 59 | 317 | 8.0 | 15.0 | 0.00 | 0.00 | 0.00 | 88 | 1024.0 |
| 20260507073059 | 59 | 309 | 7.0 | 14.0 | 0.00 | 0.00 | 0.00 | 87 | 1024.1 |
| 20260507071609 | 60 | 358 | 6.0 | 16.0 | 0.00 | 0.00 | 0.00 | 87 | 1024.0 |
| 20260507070100 | 60 | 333 | 8.0 | 18.0 | 0.00 | 0.00 | 0.00 | 87 | 1024.1 |
| 20260507064619 | 60 | 296 | 7.0 | 15.0 | 0.00 | 0.00 | 0.00 | 88 | 1024.2 |
| 20260507063058 | 60 | 300 | 6.0 | 14.0 | 0.00 | 0.00 | 0.00 | 88 | 1024.2 |
| 20260507061556 | 60 | 316 | 6.0 | 15.0 | 0.00 | 0.00 | 0.00 | 88 | 1024.2 |
| 20260507060058 | 60 | 292 | 8.0 | 16.0 | 0.00 | 0.00 | 0.00 | 88 | 1024.2 |
| 20260507054608 | 60 | 259 | 6.0 | 14.0 | 0.00 | 0.00 | 0.00 | 88 | 1024.1 |
| 20260507053059 | 60 | 311 | 6.0 | 15.0 | 0.00 | 0.00 | 0.00 | 88 | 1024.1 |
| 20260507051556 | 60 | 274 | 7.0 | 15.0 | 0.00 | 0.00 | 0.00 | 89 | 1024.1 |
| 20260507044558 | 60 | 240 | 7.0 | 14.0 | 0.00 | 0.00 | 0.00 | 89 | 1024.1 |
| 20260507043101 | 60 | 240 | 7.0 | 13.0 | 0.00 | 0.00 | 0.00 | 89 | 1024.1 |
| 20260507041608 | 60 | 276 | 7.0 | 15.0 | 0.00 | 0.00 | 0.00 | 89 | 1024.2 |
| 20260507040058 | 60 | 281 | 5.0 | 12.0 | 0.00 | 0.00 | 0.00 | 88 | 1024.1 |
| 20260507034607 | 60 | 303 | 5.0 | 15.0 | 0.00 | 0.00 | 0.00 | 88 | 1024.4 |
| 20260507033058 | 60 | 274 | 7.0 | 17.0 | 0.00 | 0.00 | 0.00 | 88 | 1024.6 |
| 20260507031600 | 61 | 261 | 8.0 | 16.0 | 0.00 | 0.00 | 0.00 | 88 | 1024.5 |
| 20260507030105 | 61 | 307 | 8.0 | 15.0 | 0.00 | 0.00 | 0.00 | 88 | 1024.5 |
| 20260507024604 | 61 | 282 | 8.0 | 14.0 | 0.00 | 0.00 | 0.00 | 87 | 1024.5 |
| 20260507023113 | 61 | 291 | 7.0 | 15.0 | 0.00 | 0.00 | 0.00 | 87 | 1024.5 |
| 20260507021558 | 61 | 340 | 7.0 | 18.0 | 0.00 | 0.00 | 0.00 | 87 | 1024.7 |
| 20260507020059 | 61 | 278 | 7.0 | 18.0 | 0.00 | 0.00 | 0.00 | 87 | 1024.6 |
| 20260507014608 | 61 | 289 | 6.0 | 17.0 | 0.00 | 0.00 | 0.00 | 87 | 1024.7 |
| 20260507013114 | 61 | 283 | 8.0 | 16.0 | 0.00 | 0.00 | 0.00 | 87 | 1024.7 |
| 20260507011558 | 61 | 299 | 6.0 | 15.0 | 0.00 | 0.00 | 0.00 | 87 | 1024.7 |
| 20260507010100 | 61 | 350 | 8.0 | 18.0 | 0.00 | 0.00 | 0.00 | 87 | 1024.9 |
| 20260507004557 | 61 | 32 | 8.0 | 17.0 | 0.00 | 0.00 | 0.00 | 87 | 1025.0 |
| 20260507003100 | 61 | 8 | 11.0 | 18.0 | 0.00 | 0.00 | 0.00 | 87 | 1025.0 |
| 20260507001620 | 61 | 315 | 9.0 | 18.0 | 0.00 | 0.00 | 0.00 | 87 | 1025.1 |
| 20260506234558 | 62 | 309 | 10.0 | 20.0 | 0.00 | 0.00 | 0.00 | 87 | 1025.2 |
| 20260506233107 | 62 | 297 | 9.0 | 19.0 | 0.00 | 0.00 | 0.00 | 87 | 1025.7 |
| 20260506231600 | 62 | 309 | 8.0 | 18.0 | 0.00 | 0.00 | 0.00 | 87 | 1025.8 |
| 20260506230059 | 62 | 288 | 10.0 | 18.0 | 0.00 | 0.00 | 0.00 | 87 | 1025.9 |
| 20260506224604 | 62 | 274 | 9.0 | 19.0 | 0.00 | 0.00 | 0.00 | 87 | 1025.8 |
| 20260506223123 | 62 | 298 | 9.0 | 18.0 | 0.00 | 0.00 | 0.00 | 87 | 1025.9 |
| 20260506221610 | 61 | 337 | 8.0 | 19.0 | 0.00 | 0.00 | 0.00 | 87 | 1025.9 |
| 20260506220059 | 61 | 14 | 8.0 | 17.0 | 0.00 | 0.00 | 0.00 | 87 | 1025.9 |
| 20260506214609 | 61 | 324 | 9.0 | 17.0 | 0.00 | 0.00 | 0.00 | 88 | 1026.0 |
| 20260506213059 | 61 | 277 | 7.0 | 16.0 | 0.00 | 0.00 | 0.00 | 88 | 1026.2 |
| 20260506211558 | 61 | 323 | 8.0 | 16.0 | 0.00 | 0.00 | 0.00 | 88 | 1026.2 |
| 20260506210126 | 61 | 342 | 7.0 | 14.0 | 0.00 | 0.00 | 0.00 | 89 | 1026.3 |
| 20260506204558 | 60 | 275 | 7.0 | 19.0 | 0.00 | 0.00 | 0.00 | 89 | 1026.3 |
| 20260506203104 | 60 | 274 | 8.0 | 17.0 | 0.00 | 0.00 | 0.00 | 89 | 1026.4 |
| 20260506201558 | 60 | 284 | 8.0 | 17.0 | 0.00 | 0.00 | 0.00 | 89 | 1026.4 |
| 20260506200150 | 60 | 309 | 7.0 | 16.0 | 0.00 | 0.00 | 0.00 | 89 | 1026.5 |
| 20260506194612 | 60 | 264 | 7.0 | 16.0 | 0.00 | 0.00 | 0.00 | 89 | 1026.5 |
| 20260506193058 | 60 | 312 | 7.0 | 13.0 | 0.00 | 0.00 | 0.00 | 89 | 1026.4 |
| 20260506191600 | 59 | 294 | 8.0 | 14.0 | 0.00 | 0.00 | 0.00 | 89 | 1026.4 |
| 20260506190100 | 59 | 257 | 7.0 | 16.0 | 0.00 | 0.00 | 0.00 | 89 | 1026.5 |
| 20260506184600 | 59 | 251 | 7.0 | 18.0 | 0.00 | 0.00 | 0.00 | 89 | 1026.4 |
| 20260506183059 | 59 | 303 | 7.0 | 17.0 | 0.00 | 0.00 | 0.00 | 89 | 1026.4 |
| 20260506181600 | 59 | 336 | 8.0 | 15.0 | 0.00 | 0.00 | 0.00 | 89 | 1026.4 |
| 20260506180108 | 59 | 294 | 7.0 | 16.0 | 0.00 | 0.00 | 0.00 | 89 | 1026.5 |
| 20260506174559 | 59 | 290 | 9.0 | 16.0 | 0.00 | 0.00 | 0.00 | 89 | 1026.6 |
| 20260506173124 | 59 | 311 | 8.0 | 17.0 | 0.00 | 0.00 | 0.00 | 89 | 1026.7 |
| 20260506171603 | 59 | 315 | 9.0 | 18.0 | 0.00 | 0.00 | 0.00 | 89 | 1026.8 |
| 20260506164605 | 59 | 294 | 9.0 | 18.0 | 0.00 | 0.00 | 0.00 | 89 | 1026.8 |
| 20260506163107 | 59 | 307 | 8.0 | 16.0 | 0.00 | 0.00 | 0.00 | 89 | 1026.9 |
| 20260506161601 | 60 | 223 | 8.0 | 20.0 | 0.00 | 0.00 | 0.00 | 89 | 1026.7 |
| 20260506160108 | 60 | 225 | 9.0 | 17.0 | 0.00 | 0.00 | 0.00 | 89 | 1026.9 |
| 20260506154600 | 60 | 340 | 7.0 | 15.0 | 0.00 | 0.00 | 0.00 | 89 | 1027.0 |
| 20260506151657 | 59 | 262 | 9.0 | 18.0 | 0.00 | 0.00 | 0.00 | 89 | 1027.1 |
| 20260506150105 | 59 | 323 | 8.0 | 16.0 | 0.00 | 0.00 | 0.00 | 90 | 1027.2 |
| 20260506144600 | 59 | 281 | 8.0 | 18.0 | 0.00 | 0.00 | 0.00 | 90 | 1027.1 |
| 20260506143104 | 59 | 294 | 8.0 | 18.0 | 0.00 | 0.00 | 0.00 | 90 | 1027.4 |
| 20260506141559 | 59 | 215 | 8.0 | 15.0 | 0.00 | 0.00 | 0.00 | 90 | 1027.5 |
| 20260506140101 | 59 | 290 | 7.0 | 15.0 | 0.00 | 0.00 | 0.00 | 90 | 1027.7 |
| 20260506134619 | 60 | 298 | 8.0 | 16.0 | 0.00 | 0.00 | 0.00 | 90 | 1028.0 |
| 20260506133101 | 60 | 285 | 8.0 | 15.0 | 0.00 | 0.00 | 0.00 | 90 | 1027.8 |
| 20260506131612 | 59 | 303 | 7.0 | 15.0 | 0.00 | 0.00 | 0.00 | 90 | 1027.8 |
| 20260506130100 | 59 | 258 | 7.0 | 15.0 | 0.00 | 0.00 | 0.00 | 90 | 1027.9 |
| 20260506124609 | 59 | 307 | 4.0 | 11.0 | 0.00 | 0.00 | 0.00 | 90 | 1028.1 |
| 20260506123059 | 59 | 287 | 6.0 | 15.0 | 0.00 | 0.00 | 0.00 | 89 | 1028.1 |
| 20260506121609 | 60 | 255 | 9.0 | 16.0 | 0.00 | 0.00 | 0.00 | 89 | 1028.1 |
| 20260506114558 | 60 | 288 | 6.0 | 14.0 | 0.00 | 0.00 | 0.00 | 90 | 1028.1 |
| 20260506113059 | 60 | 251 | 7.0 | 16.0 | 0.00 | 0.00 | 0.00 | 90 | 1028.3 |
| 20260506111618 | 60 | 259 | 8.0 | 18.0 | 0.00 | 0.00 | 0.00 | 89 | 1028.2 |
| 20260506110058 | 60 | 325 | 7.0 | 16.0 | 0.00 | 0.00 | 0.00 | 89 | 1028.2 |
| 20260506104604 | 60 | 257 | 7.0 | 15.0 | 0.00 | 0.00 | 0.00 | 89 | 1028.3 |